Location: Recife
(8.0585°S, 34.8848°W)
Time: 11:28:53
(UTC-03:00)

Vanguard 2 Rocket - Pass Details

Date: 21 April 2026
Orbit: 553 x 3286 km, 32.9° (Epoch: 8 May)

Event Time Altitude Azimuth Distance (km) Brightness Sun altitude
Rises 14:08:15 0° 247° (WSW) 6,924 11.8 43.2°
Reaches altitude 10° 14:12:52 10° 252° (WSW) 6,081 11.8 42.2°
Maximum altitude 14:31:48 51° 321° (NW) 3,719 11.5 37.9°
Drops below altitude 10° 14:47:48 10° 33° (NNE) 5,178 10.7 34.2°
Sets 14:51:25 0° 38° (NE) 5,872 10.9 33.3°
